Time,TemperatureF,DewpointF,PressureIn,WindDirection,WindDirectionDegrees,WindSpeedMPH,WindSpeedGustMPH,Humidity,HourlyPrecipIn,Conditions,Clouds,dailyrainin,SoftwareType,DateUTC
2013-11-26 00:00:00,38.1,32.8,29.67,WNW,292,2.0,10.0,81,0.01,,,-99.99,WeatherLink 6.0.3,2013-11-26 05:00:00,
2013-11-26 00:01:00,35.3,28.2,30.32,ESE,110,0.0,0.0,75,0.00,,,0.00,Wunderground v.1.15,2013-11-26 05:01:00,
2013-11-26 00:02:00,35.4,28.6,30.32,ESE,110,0.0,0.0,76,0.00,,,0.00,Wunderground v.1.15,2013-11-26 05:02:00,
2013-11-26 00:07:00,35.5,26.0,30.31,ESE,110,0.0,0.0,68,0.00,,,0.00,Wunderground v.1.15,2013-11-26 05:07:00,
2013-11-26 00:08:00,35.6,25.4,30.31,ESE,110,0.0,0.0,66,0.00,,,0.00,Wunderground v.1.15,2013-11-26 05:08:00,
2013-11-26 00:14:00,35.7,25.1,30.31,ESE,110,0.0,0.0,65,0.00,,,0.00,Wunderground v.1.15,2013-11-26 05:14:00,
2013-11-26 00:17:00,35.7,24.7,30.31,ESE,110,0.0,0.0,64,0.00,,,0.00,Wunderground v.1.15,2013-11-26 05:17:00,
2013-11-26 00:23:00,35.5,26.0,30.30,ESE,110,0.0,0.0,68,0.00,,,0.00,Wunderground v.1.15,2013-11-26 05:23:00,
2013-11-26 00:29:00,35.3,25.4,30.30,ESE,110,0.0,0.0,67,0.00,,,0.00,Wunderground v.1.15,2013-11-26 05:29:00,
2013-11-26 00:30:00,37.7,33.3,29.69,WNW,292,3.0,9.0,84,0.00,,,-99.99,WeatherLink 6.0.3,2013-11-26 05:30:00,
2013-11-26 00:34:00,35.2,26.0,30.30,ESE,110,0.0,0.0,69,0.00,,,0.00,Wunderground v.1.15,2013-11-26 05:34:00,
2013-11-26 00:35:00,35.3,27.2,30.30,ESE,110,0.0,0.0,72,0.00,,,0.00,Wunderground v.1.15,2013-11-26 05:35:00,
2013-11-26 00:40:00,35.1,24.9,30.30,ESE,110,0.0,0.0,66,0.00,,,0.00,Wunderground v.1.15,2013-11-26 05:40:00,
2013-11-26 00:46:00,34.9,26.1,30.29,ESE,110,0.0,0.0,70,0.00,,,0.00,Wunderground v.1.15,2013-11-26 05:46:00,
2013-11-26 00:51:00,35.1,27.0,30.29,ESE,110,0.0,0.0,72,0.00,,,0.00,Wunderground v.1.15,2013-11-26 05:51:00,
2013-11-26 00:57:00,34.8,27.7,30.30,ESE,110,0.0,1.0,75,0.00,,,0.00,Wunderground v.1.15,2013-11-26 05:57:00,
2013-11-26 01:00:00,34.1,32.3,29.71,WNW,292,3.0,10.0,93,0.00,,,-99.99,WeatherLink 6.0.3,2013-11-26 06:00:00,
2013-11-26 01:02:00,34.4,28.2,30.29,ESE,110,1.0,2.0,78,0.00,,,0.00,Wunderground v.1.15,2013-11-26 06:02:00,
2013-11-26 01:07:00,34.0,28.2,30.29,NW,323,1.0,2.0,79,0.00,,,0.00,Wunderground v.1.15,2013-11-26 06:07:00,
2013-11-26 01:13:00,33.7,28.2,30.28,NW,322,0.0,1.0,80,0.00,,,0.00,Wunderground v.1.15,2013-11-26 06:13:00,
2013-11-26 01:18:00,33.8,28.9,30.27,NW,322,1.0,1.0,82,0.00,,,0.00,Wunderground v.1.15,2013-11-26 06:18:00,
2013-11-26 01:24:00,33.7,27.9,30.27,NW,322,2.0,2.0,79,0.00,,,0.00,Wunderground v.1.15,2013-11-26 06:24:00,
2013-11-26 01:29:00,33.6,28.7,30.27,NW,321,0.0,2.0,82,0.00,,,0.00,Wunderground v.1.15,2013-11-26 06:29:00,
2013-11-26 01:30:00,34.9,33.6,29.70,NE,45,1.0,9.0,95,0.00,,,-99.99,WeatherLink 6.0.3,2013-11-26 06:30:00,
2013-11-26 01:34:00,33.6,29.0,30.27,NW,321,1.0,1.0,83,0.00,,,0.00,Wunderground v.1.15,2013-11-26 06:34:00,
2013-11-26 01:40:00,33.5,28.6,30.27,NW,304,1.0,1.0,82,0.00,,,0.00,Wunderground v.1.15,2013-11-26 06:40:00,
2013-11-26 01:45:00,33.2,28.3,30.26,WNW,292,0.0,4.0,82,0.00,,,0.00,Wunderground v.1.15,2013-11-26 06:45:00,
2013-11-26 01:51:00,33.0,28.1,30.26,WNW,292,0.0,1.0,82,0.00,,,0.00,Wunderground v.1.15,2013-11-26 06:51:00,
2013-11-26 01:56:00,33.0,27.8,30.26,WNW,292,1.0,4.0,81,0.00,,,0.00,Wunderground v.1.15,2013-11-26 06:56:00,
2013-11-26 02:00:00,35.9,33.5,29.71,WNW,292,1.0,6.0,91,0.00,,,-99.99,WeatherLink 6.0.3,2013-11-26 07:00:00,
2013-11-26 02:01:00,33.0,28.1,30.26,WNW,292,0.0,1.0,82,0.00,,,0.00,Wunderground v.1.15,2013-11-26 07:01:00,
2013-11-26 02:06:00,33.2,28.6,30.26,WNW,292,1.0,2.0,83,0.00,,,0.00,Wunderground v.1.15,2013-11-26 07:06:00,
2013-11-26 02:11:00,33.3,28.4,30.26,WNW,292,1.0,3.0,82,0.00,,,0.00,Wunderground v.1.15,2013-11-26 07:11:00,
2013-11-26 02:16:00,33.1,28.2,30.26,WNW,292,0.0,3.0,82,0.00,,,0.00,Wunderground v.1.15,2013-11-26 07:16:00,
2013-11-26 02:21:00,33.2,28.6,30.26,WNW,292,2.0,2.0,83,0.00,,,0.00,Wunderground v.1.15,2013-11-26 07:21:00,
2013-11-26 02:26:00,33.2,28.9,30.26,WNW,292,0.0,2.0,84,0.00,,,0.00,Wunderground v.1.15,2013-11-26 07:26:00,
2013-11-26 02:30:00,38.3,33.0,29.71,NE,45,2.0,7.0,81,0.00,,,-99.99,WeatherLink 6.0.3,2013-11-26 07:30:00,
2013-11-26 02:31:00,33.3,29.0,30.26,WNW,292,0.0,0.0,84,0.00,,,0.00,Wunderground v.1.15,2013-11-26 07:31:00,
2013-11-26 02:36:00,33.3,28.4,30.26,WNW,292,0.0,4.0,82,0.00,,,0.00,Wunderground v.1.15,2013-11-26 07:36:00,
2013-11-26 02:41:00,33.2,28.6,30.26,WNW,292,0.0,2.0,83,0.00,,,0.00,Wunderground v.1.15,2013-11-26 07:41:00,
2013-11-26 02:46:00,33.3,29.0,30.25,WNW,292,1.0,2.0,84,0.00,,,0.00,Wunderground v.1.15,2013-11-26 07:46:00,
2013-11-26 02:51:00,33.3,29.0,30.25,WNW,292,0.0,1.0,84,0.00,,,0.00,Wunderground v.1.15,2013-11-26 07:51:00,
2013-11-26 02:56:00,33.3,29.0,30.25,WNW,292,0.0,1.0,84,0.00,,,0.00,Wunderground v.1.15,2013-11-26 07:56:00,
2013-11-26 03:00:00,38.6,32.3,29.72,NNW,337,2.0,9.0,78,0.00,,,-99.99,WeatherLink 6.0.3,2013-11-26 08:00:00,
2013-11-26 03:01:00,33.5,29.8,30.25,WNW,292,0.0,0.0,86,0.00,,,0.00,Wunderground v.1.15,2013-11-26 08:01:00,
2013-11-26 03:06:00,33.6,29.9,30.25,WNW,292,0.0,2.0,86,0.00,,,0.00,Wunderground v.1.15,2013-11-26 08:06:00,
2013-11-26 03:11:00,33.7,29.7,30.25,WNW,292,0.0,0.0,85,0.00,,,0.00,Wunderground v.1.15,2013-11-26 08:11:00,
2013-11-26 03:16:00,33.5,29.5,30.25,WNW,292,0.0,0.0,85,0.00,,,0.00,Wunderground v.1.15,2013-11-26 08:16:00,
2013-11-26 03:21:00,33.4,29.9,30.24,WNW,292,0.0,0.0,87,0.00,,,0.01,Wunderground v.1.15,2013-11-26 08:21:00,
2013-11-26 03:26:00,33.6,31.0,30.23,WNW,292,0.0,0.0,90,0.00,,,0.01,Wunderground v.1.15,2013-11-26 08:26:00,
2013-11-26 03:30:00,40.1,29.3,29.74,WNW,292,7.0,20.0,65,0.00,,,-99.99,WeatherLink 6.0.3,2013-11-26 08:30:00,
2013-11-26 03:31:00,33.6,30.4,30.24,WNW,292,0.0,0.0,88,0.00,,,0.01,Wunderground v.1.15,2013-11-26 08:31:00,
2013-11-26 03:36:00,33.5,30.6,30.24,WNW,292,0.0,1.0,89,0.04,,,0.02,Wunderground v.1.15,2013-11-26 08:36:00,
2013-11-26 03:41:00,33.6,30.7,30.24,WNW,292,0.0,2.0,89,0.04,,,0.02,Wunderground v.1.15,2013-11-26 08:41:00,
2013-11-26 03:46:00,33.7,31.1,30.24,WNW,292,2.0,2.0,90,0.10,,,0.03,Wunderground v.1.15,2013-11-26 08:46:00,
2013-11-26 03:51:00,33.4,30.8,30.24,WNW,292,0.0,1.0,90,0.06,,,0.03,Wunderground v.1.15,2013-11-26 08:51:00,
2013-11-26 03:56:00,33.3,30.7,30.24,WNW,292,0.0,1.0,90,0.05,,,0.04,Wunderground v.1.15,2013-11-26 08:56:00,
2013-11-26 04:00:00,39.1,27.2,29.77,WNW,292,10.0,27.0,62,0.00,,,-99.99,WeatherLink 6.0.3,2013-11-26 09:00:00,
2013-11-26 04:01:00,33.4,31.1,30.24,WNW,292,0.0,2.0,91,0.05,,,0.04,Wunderground v.1.15,2013-11-26 09:01:00,
2013-11-26 04:06:00,33.5,31.2,30.24,WNW,292,0.0,2.0,91,0.07,,,0.05,Wunderground v.1.15,2013-11-26 09:06:00,
2013-11-26 04:11:00,33.4,30.8,30.24,WNW,292,0.0,0.0,90,0.08,,,0.06,Wunderground v.1.15,2013-11-26 09:11:00,
2013-11-26 04:16:00,33.6,31.5,30.23,WNW,292,0.0,1.0,92,0.14,,,0.07,Wunderground v.1.15,2013-11-26 09:16:00,
2013-11-26 04:21:00,33.4,30.8,30.24,WNW,292,0.0,2.0,90,0.08,,,0.07,Wunderground v.1.15,2013-11-26 09:21:00,
2013-11-26 04:26:00,33.4,31.1,30.24,WNW,292,0.0,2.0,91,0.07,,,0.08,Wunderground v.1.15,2013-11-26 09:26:00,
2013-11-26 04:30:00,37.7,25.8,29.81,WNW,292,9.0,22.0,62,0.00,,,-99.99,WeatherLink 6.0.3,2013-11-26 09:30:00,
2013-11-26 04:31:00,33.3,31.2,30.24,WNW,292,0.0,0.0,92,0.08,,,0.09,Wunderground v.1.15,2013-11-26 09:31:00,
2013-11-26 04:36:00,33.3,31.2,30.24,WNW,292,0.0,0.0,92,0.08,,,0.09,Wunderground v.1.15,2013-11-26 09:36:00,
2013-11-26 04:41:00,33.2,30.9,30.24,WNW,292,0.0,0.0,91,0.09,,,0.10,Wunderground v.1.15,2013-11-26 09:41:00,
2013-11-26 04:46:00,33.0,30.7,30.23,WNW,292,0.0,0.0,91,0.10,,,0.11,Wunderground v.1.15,2013-11-26 09:46:00,
2013-11-26 04:51:00,32.8,30.5,30.23,WNW,292,0.0,0.0,91,0.07,,,0.11,Wunderground v.1.15,2013-11-26 09:51:00,
2013-11-26 04:56:00,32.6,30.3,30.23,WNW,292,0.0,0.0,91,0.04,,,0.11,Wunderground v.1.15,2013-11-26 09:56:00,
2013-11-26 05:00:00,36.7,24.5,29.84,WNW,292,8.0,21.0,61,0.00,,,-99.99,WeatherLink 6.0.3,2013-11-26 10:00:00,
2013-11-26 05:02:00,32.6,30.5,30.23,WNW,292,0.0,0.0,92,0.04,,,0.12,Wunderground v.1.15,2013-11-26 10:02:00,
2013-11-26 05:07:00,32.9,30.8,30.22,WNW,292,0.0,1.0,92,0.08,,,0.13,Wunderground v.1.15,2013-11-26 10:07:00,
2013-11-26 05:12:00,32.9,30.8,30.22,WNW,292,0.0,1.0,92,0.08,,,0.13,Wunderground v.1.15,2013-11-26 10:12:00,
2013-11-26 05:17:00,32.8,30.7,30.21,WNW,292,0.0,1.0,92,0.05,,,0.13,Wunderground v.1.15,2013-11-26 10:17:00,
2013-11-26 05:22:00,32.7,30.9,30.21,WNW,292,0.0,0.0,93,0.04,,,0.13,Wunderground v.1.15,2013-11-26 10:22:00,
2013-11-26 05:27:00,32.7,30.9,30.21,WNW,292,0.0,1.0,93,0.00,,,0.13,Wunderground v.1.15,2013-11-26 10:27:00,
2013-11-26 05:30:00,35.9,24.5,29.88,WNW,292,5.0,19.0,63,0.00,,,-99.99,WeatherLink 6.0.3,2013-11-26 10:30:00,
2013-11-26 05:32:00,32.9,31.4,30.22,WNW,292,0.0,0.0,94,0.00,,,0.13,Wunderground v.1.15,2013-11-26 10:32:00,
2013-11-26 05:37:00,32.9,31.1,30.22,WNW,292,0.0,0.0,93,0.00,,,0.13,Wunderground v.1.15,2013-11-26 10:37:00,
2013-11-26 05:42:00,32.9,31.4,30.21,WNW,292,0.0,0.0,94,0.00,,,0.13,Wunderground v.1.15,2013-11-26 10:42:00,
2013-11-26 05:47:00,33.0,31.5,30.21,WNW,292,0.0,0.0,94,0.00,,,0.13,Wunderground v.1.15,2013-11-26 10:47:00,
2013-11-26 05:52:00,33.0,31.2,30.20,WNW,292,0.0,2.0,93,0.00,,,0.13,Wunderground v.1.15,2013-11-26 10:52:00,
2013-11-26 05:57:00,32.8,31.0,30.20,WNW,292,0.0,2.0,93,0.00,,,0.13,Wunderground v.1.15,2013-11-26 10:57:00,
2013-11-26 06:00:00,34.9,23.6,29.90,NW,315,4.0,13.0,63,0.00,,,-99.99,WeatherLink 6.0.3,2013-11-26 11:00:00,
2013-11-26 06:02:00,32.8,31.0,30.20,WNW,292,0.0,1.0,93,0.00,,,0.13,Wunderground v.1.15,2013-11-26 11:02:00,
2013-11-26 06:07:00,32.5,30.7,30.20,WNW,292,0.0,2.0,93,0.00,,,0.13,Wunderground v.1.15,2013-11-26 11:07:00,
2013-11-26 06:13:00,32.3,30.2,30.19,WNW,292,0.0,1.0,92,0.00,,,0.13,Wunderground v.1.15,2013-11-26 11:13:00,
2013-11-26 06:18:00,32.3,30.2,30.19,WNW,292,0.0,1.0,92,0.00,,,0.13,Wunderground v.1.15,2013-11-26 11:18:00,
2013-11-26 06:23:00,32.3,30.5,30.19,WNW,292,0.0,0.0,93,0.00,,,0.13,Wunderground v.1.15,2013-11-26 11:23:00,
2013-11-26 06:28:00,32.6,31.1,30.19,WNW,292,0.0,1.0,94,0.00,,,0.13,Wunderground v.1.15,2013-11-26 11:28:00,
2013-11-26 06:30:00,33.7,21.3,29.93,NW,315,7.0,19.0,60,0.00,,,-99.99,WeatherLink 6.0.3,2013-11-26 11:30:00,
2013-11-26 06:33:00,32.7,30.9,30.19,WNW,292,0.0,1.0,93,0.00,,,0.13,Wunderground v.1.15,2013-11-26 11:33:00,
2013-11-26 06:38:00,32.6,30.8,30.19,WNW,292,0.0,1.0,93,0.00,,,0.13,Wunderground v.1.15,2013-11-26 11:38:00,
2013-11-26 06:43:00,32.8,31.3,30.19,WNW,292,0.0,0.0,94,0.00,,,0.13,Wunderground v.1.15,2013-11-26 11:43:00,
2013-11-26 06:48:00,32.7,30.9,30.18,WNW,292,0.0,0.0,93,0.00,,,0.14,Wunderground v.1.15,2013-11-26 11:48:00,
2013-11-26 06:53:00,32.7,30.9,30.18,WNW,292,0.0,0.0,93,0.00,,,0.14,Wunderground v.1.15,2013-11-26 11:53:00,
2013-11-26 06:58:00,32.6,30.8,30.18,WNW,292,0.0,0.0,93,0.00,,,0.14,Wunderground v.1.15,2013-11-26 11:58:00,
2013-11-26 07:00:00,32.6,21.0,29.96,WNW,292,8.0,17.0,62,0.00,,,-99.99,WeatherLink 6.0.3,2013-11-26 12:00:00,
2013-11-26 07:03:00,32.6,30.8,30.17,NW,310,0.0,0.0,93,0.05,,,0.15,Wunderground v.1.15,2013-11-26 12:03:00,
2013-11-26 07:08:00,32.6,30.8,30.17,NW,310,0.0,0.0,93,0.05,,,0.15,Wunderground v.1.15,2013-11-26 12:08:00,
2013-11-26 07:13:00,32.6,30.8,30.17,NW,310,0.0,0.0,93,0.04,,,0.15,Wunderground v.1.15,2013-11-26 12:13:00,
2013-11-26 07:18:00,32.5,30.7,30.17,NW,310,0.0,0.0,93,0.04,,,0.16,Wunderground v.1.15,2013-11-26 12:18:00,
2013-11-26 07:23:00,32.4,30.9,30.16,NW,310,0.0,0.0,94,0.04,,,0.16,Wunderground v.1.15,2013-11-26 12:23:00,
2013-11-26 07:28:00,32.5,31.0,30.16,NW,310,0.0,0.0,94,0.06,,,0.17,Wunderground v.1.15,2013-11-26 12:28:00,
2013-11-26 07:30:00,31.9,21.5,29.98,WNW,292,7.0,20.0,65,0.01,,,-99.99,WeatherLink 6.0.3,2013-11-26 12:30:00,
2013-11-26 07:33:00,32.6,31.1,30.16,NW,310,0.0,0.0,94,0.09,,,0.18,Wunderground v.1.15,2013-11-26 12:33:00,
2013-11-26 07:38:00,32.7,31.2,30.15,NW,310,0.0,0.0,94,0.09,,,0.19,Wunderground v.1.15,2013-11-26 12:38:00,
2013-11-26 07:43:00,32.8,31.3,30.15,NW,310,0.0,0.0,94,0.13,,,0.20,Wunderground v.1.15,2013-11-26 12:43:00,
2013-11-26 07:48:00,32.7,31.2,30.14,NW,310,0.0,0.0,94,0.12,,,0.21,Wunderground v.1.15,2013-11-26 12:48:00,
2013-11-26 07:53:00,32.8,31.5,30.14,NW,310,0.0,0.0,95,0.10,,,0.21,Wunderground v.1.15,2013-11-26 12:53:00,
2013-11-26 07:58:00,32.9,31.6,30.15,NW,310,0.0,0.0,95,0.10,,,0.22,Wunderground v.1.15,2013-11-26 12:58:00,
2013-11-26 08:00:00,31.6,21.2,30.00,WNW,292,8.0,20.0,65,0.01,,,-99.99,WeatherLink 6.0.3,2013-11-26 13:00:00,
2013-11-26 08:03:00,33.0,31.7,30.15,NW,310,0.0,0.0,95,0.17,,,0.24,Wunderground v.1.15,2013-11-26 13:03:00,
2013-11-26 08:08:00,33.2,31.9,30.15,NW,310,0.0,0.0,95,0.17,,,0.25,Wunderground v.1.15,2013-11-26 13:08:00,
2013-11-26 08:13:00,33.4,32.1,30.15,NW,310,0.0,0.0,95,0.14,,,0.27,Wunderground v.1.15,2013-11-26 13:13:00,
2013-11-26 08:18:00,33.5,32.2,30.14,NW,310,0.0,0.0,95,0.19,,,0.28,Wunderground v.1.15,2013-11-26 13:18:00,
2013-11-26 08:23:00,33.7,32.4,30.14,NW,310,0.0,0.0,95,0.11,,,0.29,Wunderground v.1.15,2013-11-26 13:23:00,
2013-11-26 08:28:00,33.9,32.9,30.14,NW,310,0.0,0.0,96,0.16,,,0.30,Wunderground v.1.15,2013-11-26 13:28:00,
2013-11-26 08:30:00,31.3,22.0,30.02,WNW,292,4.0,12.0,68,0.00,,,-99.99,WeatherLink 6.0.3,2013-11-26 13:30:00,
2013-11-26 08:33:00,33.8,32.5,30.14,NW,310,0.0,0.0,95,0.20,,,0.32,Wunderground v.1.15,2013-11-26 13:33:00,
2013-11-26 08:38:00,33.6,32.3,30.14,NW,310,0.0,0.0,95,0.19,,,0.34,Wunderground v.1.15,2013-11-26 13:38:00,
2013-11-26 08:43:00,33.6,32.3,30.14,NW,310,0.0,0.0,95,0.15,,,0.35,Wunderground v.1.15,2013-11-26 13:43:00,
2013-11-26 08:48:00,33.5,32.2,30.14,NW,310,0.0,0.0,95,0.29,,,0.37,Wunderground v.1.15,2013-11-26 13:48:00,
2013-11-26 08:53:00,33.4,32.1,30.14,NW,310,0.0,0.0,95,0.23,,,0.39,Wunderground v.1.15,2013-11-26 13:53:00,
2013-11-26 08:58:00,33.4,32.1,30.14,NW,310,0.0,0.0,95,0.24,,,0.41,Wunderground v.1.15,2013-11-26 13:58:00,
2013-11-26 09:00:00,31.4,20.6,30.05,NW,315,4.0,13.0,64,0.00,,,-99.99,WeatherLink 6.0.3,2013-11-26 14:00:00,
2013-11-26 09:03:00,34.0,33.0,30.13,NW,310,0.0,0.0,96,0.22,,,0.43,Wunderground v.1.15,2013-11-26 14:03:00,
2013-11-26 09:08:00,34.4,33.4,30.13,NW,310,0.0,0.0,96,0.19,,,0.45,Wunderground v.1.15,2013-11-26 14:08:00,
2013-11-26 09:13:00,34.1,33.1,30.12,NW,310,0.0,0.0,96,0.18,,,0.46,Wunderground v.1.15,2013-11-26 14:13:00,
2013-11-26 09:18:00,33.8,32.8,30.11,NW,310,0.0,0.0,96,0.18,,,0.48,Wunderground v.1.15,2013-11-26 14:18:00,
2013-11-26 09:23:00,33.8,32.8,30.11,NW,310,0.0,0.0,96,0.16,,,0.49,Wunderground v.1.15,2013-11-26 14:23:00,
2013-11-26 09:28:00,33.7,32.7,30.10,NW,310,0.0,0.0,96,0.20,,,0.51,Wunderground v.1.15,2013-11-26 14:28:00,
2013-11-26 09:30:00,30.6,21.6,30.05,NW,315,4.0,20.0,69,0.00,,,-99.99,WeatherLink 6.0.3,2013-11-26 14:30:00,
2013-11-26 09:33:00,33.8,32.8,30.10,NW,310,0.0,0.0,96,0.16,,,0.52,Wunderground v.1.15,2013-11-26 14:33:00,
2013-11-26 09:38:00,33.7,32.7,30.10,NW,310,0.0,0.0,96,0.21,,,0.54,Wunderground v.1.15,2013-11-26 14:38:00,
2013-11-26 09:43:00,33.7,32.7,30.10,NW,310,0.0,0.0,96,0.20,,,0.56,Wunderground v.1.15,2013-11-26 14:43:00,
2013-11-26 09:48:00,33.7,32.7,30.09,NW,310,0.0,0.0,96,0.22,,,0.58,Wunderground v.1.15,2013-11-26 14:48:00,
2013-11-26 09:53:00,33.6,32.6,30.08,NW,310,0.0,0.0,96,0.23,,,0.60,Wunderground v.1.15,2013-11-26 14:53:00,
2013-11-26 09:58:00,33.7,32.7,30.08,NW,310,0.0,0.0,96,0.28,,,0.61,Wunderground v.1.15,2013-11-26 14:58:00,
2013-11-26 10:00:00,30.3,21.0,30.07,NW,315,4.0,13.0,68,0.00,,,-99.99,WeatherLink 6.0.3,2013-11-26 15:00:00,
2013-11-26 10:04:00,33.8,32.8,30.07,NW,310,0.0,0.0,96,0.21,,,0.63,Wunderground v.1.15,2013-11-26 15:04:00,
2013-11-26 10:09:00,33.8,32.8,30.07,NW,310,0.0,0.0,96,0.23,,,0.65,Wunderground v.1.15,2013-11-26 15:09:00,
2013-11-26 10:14:00,33.9,32.9,30.06,NW,310,0.0,0.0,96,0.22,,,0.67,Wunderground v.1.15,2013-11-26 15:14:00,
2013-11-26 10:19:00,33.9,32.9,30.06,NW,310,0.0,0.0,96,0.26,,,0.69,Wunderground v.1.15,2013-11-26 15:19:00,
2013-11-26 10:24:00,33.8,32.8,30.06,NW,310,0.0,0.0,96,0.24,,,0.71,Wunderground v.1.15,2013-11-26 15:24:00,
2013-11-26 10:29:00,33.7,32.7,30.05,NW,310,0.0,0.0,96,0.22,,,0.02,Wunderground v.1.15,2013-11-26 15:29:00,
2013-11-26 10:30:00,30.1,19.4,30.07,WNW,292,5.0,15.0,64,0.00,,,-99.99,WeatherLink 6.0.3,2013-11-26 15:30:00,
2013-11-26 10:34:00,33.8,32.8,30.05,NW,310,0.0,0.0,96,0.21,,,0.03,Wunderground v.1.15,2013-11-26 15:34:00,
2013-11-26 10:39:00,33.7,32.7,30.05,NW,310,0.0,2.0,96,0.23,,,0.05,Wunderground v.1.15,2013-11-26 15:39:00,
2013-11-26 10:44:00,33.7,32.7,30.05,NW,310,0.0,1.0,96,0.27,,,0.07,Wunderground v.1.15,2013-11-26 15:44:00,
2013-11-26 10:49:00,34.0,33.0,30.04,NW,310,0.0,1.0,96,0.21,,,0.09,Wunderground v.1.15,2013-11-26 15:49:00,
2013-11-26 10:54:00,34.1,33.1,30.04,NW,310,1.0,2.0,96,0.20,,,0.11,Wunderground v.1.15,2013-11-26 15:54:00,
2013-11-26 10:59:00,34.1,33.1,30.03,NW,310,1.0,2.0,96,0.24,,,0.13,Wunderground v.1.15,2013-11-26 15:59:00,
2013-11-26 11:00:00,30.1,19.0,30.09,NW,315,6.0,16.0,63,0.00,,,-99.99,WeatherLink 6.0.3,2013-11-26 16:00:00,
2013-11-26 11:04:00,34.1,33.1,30.03,NW,310,1.0,2.0,96,0.26,,,0.15,Wunderground v.1.15,2013-11-26 16:04:00,
2013-11-26 11:09:00,34.1,33.1,30.03,NW,310,0.0,2.0,96,0.21,,,0.16,Wunderground v.1.15,2013-11-26 16:09:00,
2013-11-26 11:14:00,34.3,33.5,30.02,NW,310,0.0,1.0,97,0.25,,,0.19,Wunderground v.1.15,2013-11-26 16:14:00,
2013-11-26 11:19:00,34.4,33.6,30.02,NW,310,0.0,1.0,97,0.19,,,0.20,Wunderground v.1.15,2013-11-26 16:19:00,
2013-11-26 11:24:00,34.4,33.6,30.01,NW,310,0.0,1.0,97,0.23,,,0.22,Wunderground v.1.15,2013-11-26 16:24:00,
2013-11-26 11:29:00,34.4,33.6,30.00,NW,310,0.0,1.0,97,0.22,,,0.24,Wunderground v.1.15,2013-11-26 16:29:00,
2013-11-26 11:30:00,29.8,19.1,30.11,WNW,292,3.0,12.0,64,0.00,,,-99.99,WeatherLink 6.0.3,2013-11-26 16:30:00,
2013-11-26 11:34:00,34.4,33.6,30.00,NW,310,0.0,2.0,97,0.23,,,0.26,Wunderground v.1.15,2013-11-26 16:34:00,
2013-11-26 11:39:00,34.4,33.6,29.99,NW,310,0.0,2.0,97,0.24,,,0.28,Wunderground v.1.15,2013-11-26 16:39:00,
2013-11-26 11:44:00,34.4,33.6,29.99,NW,310,0.0,1.0,97,0.30,,,0.30,Wunderground v.1.15,2013-11-26 16:44:00,
2013-11-26 11:49:00,34.8,34.0,29.98,NW,310,0.0,1.0,97,0.30,,,0.33,Wunderground v.1.15,2013-11-26 16:49:00,
2013-11-26 11:54:00,34.7,33.9,29.98,NW,310,0.0,2.0,97,0.23,,,0.35,Wunderground v.1.15,2013-11-26 16:54:00,
2013-11-26 11:59:00,34.9,34.1,29.97,NW,310,1.0,2.0,97,0.31,,,0.37,Wunderground v.1.15,2013-11-26 16:59:00,
2013-11-26 12:00:00,29.5,19.2,30.13,WNW,292,2.0,10.0,65,0.00,,,-99.99,WeatherLink 6.0.3,2013-11-26 17:00:00,
2013-11-26 12:04:00,34.8,34.0,29.98,WNW,291,4.0,4.0,97,0.21,,,0.39,Wunderground v.1.15,2013-11-26 17:04:00,
2013-11-26 12:09:00,34.8,34.0,29.97,WNW,292,0.0,6.0,97,0.33,,,0.41,Wunderground v.1.15,2013-11-26 17:09:00,
2013-11-26 12:14:00,34.6,33.8,29.97,WNW,293,1.0,2.0,97,0.29,,,0.43,Wunderground v.1.15,2013-11-26 17:14:00,
2013-11-26 12:19:00,34.9,34.1,29.96,WNW,296,3.0,4.0,97,0.27,,,0.45,Wunderground v.1.15,2013-11-26 17:19:00,
2013-11-26 12:24:00,35.0,34.2,29.96,WNW,296,4.0,4.0,97,0.23,,,0.47,Wunderground v.1.15,2013-11-26 17:24:00,
2013-11-26 12:29:00,35.0,34.2,29.96,WNW,296,2.0,4.0,97,0.25,,,0.49,Wunderground v.1.15,2013-11-26 17:29:00,
2013-11-26 12:30:00,29.1,19.5,30.16,WNW,292,2.0,9.0,67,0.00,,,-99.99,WeatherLink 6.0.3,2013-11-26 17:30:00,
2013-11-26 12:34:00,35.1,34.3,29.96,WNW,296,2.0,4.0,97,0.38,,,0.53,Wunderground v.1.15,2013-11-26 17:34:00,
2013-11-26 12:39:00,35.2,34.4,29.95,WNW,302,4.0,6.0,97,0.27,,,0.55,Wunderground v.1.15,2013-11-26 17:39:00,
2013-11-26 12:44:00,35.2,34.4,29.96,WNW,298,4.0,5.0,97,0.19,,,0.57,Wunderground v.1.15,2013-11-26 17:44:00,
2013-11-26 12:49:00,35.3,34.5,29.94,WNW,302,4.0,7.0,97,0.31,,,0.59,Wunderground v.1.15,2013-11-26 17:49:00,
2013-11-26 12:54:00,35.4,34.6,29.94,WNW,302,0.0,7.0,97,0.24,,,0.61,Wunderground v.1.15,2013-11-26 17:54:00,
2013-11-26 12:59:00,35.5,34.7,29.92,NNW,338,5.0,7.0,97,0.20,,,0.63,Wunderground v.1.15,2013-11-26 17:59:00,
2013-11-26 13:00:00,28.9,19.3,30.17,NW,315,1.0,9.0,67,0.00,,,-99.99,WeatherLink 6.0.3,2013-11-26 18:00:00,
2013-11-26 13:04:00,35.6,34.8,29.92,SE,138,5.0,11.0,97,0.32,,,0.65,Wunderground v.1.15,2013-11-26 18:04:00,
2013-11-26 13:09:00,35.7,34.9,29.91,East,96,0.0,11.0,97,0.16,,,0.66,Wunderground v.1.15,2013-11-26 18:09:00,
2013-11-26 13:14:00,35.9,35.1,29.91,East,96,0.0,3.0,97,0.19,,,0.68,Wunderground v.1.15,2013-11-26 18:14:00,
2013-11-26 13:19:00,36.1,35.3,29.91,East,97,0.0,3.0,97,0.17,,,0.69,Wunderground v.1.15,2013-11-26 18:19:00,
2013-11-26 13:24:00,36.2,35.4,29.89,North,355,2.0,2.0,97,0.10,,,0.70,Wunderground v.1.15,2013-11-26 18:24:00,
2013-11-26 13:29:00,36.2,35.4,29.91,NW,304,0.0,5.0,97,0.14,,,0.71,Wunderground v.1.15,2013-11-26 18:29:00,
2013-11-26 13:30:00,28.7,19.5,30.18,NW,315,1.0,7.0,68,0.00,,,-99.99,WeatherLink 6.0.3,2013-11-26 18:30:00,
2013-11-26 13:34:00,36.1,35.3,29.90,WNW,298,0.0,5.0,97,0.17,,,0.73,Wunderground v.1.15,2013-11-26 18:34:00,
2013-11-26 13:39:00,36.1,35.3,29.88,NW,307,2.0,3.0,97,0.16,,,0.74,Wunderground v.1.15,2013-11-26 18:39:00,
2013-11-26 13:44:00,36.2,35.4,29.89,SW,229,1.0,3.0,97,0.15,,,0.75,Wunderground v.1.15,2013-11-26 18:44:00,
2013-11-26 13:49:00,36.4,35.6,29.88,WNW,298,0.0,1.0,97,0.21,,,0.77,Wunderground v.1.15,2013-11-26 18:49:00,
2013-11-26 13:54:00,36.6,35.8,29.88,WNW,298,2.0,4.0,97,0.24,,,0.79,Wunderground v.1.15,2013-11-26 18:54:00,
2013-11-26 14:00:00,36.6,35.8,29.88,WNW,298,0.0,1.0,97,0.18,,,0.81,Wunderground v.1.15,2013-11-26 19:00:00,
2013-11-26 14:05:00,36.7,35.9,29.87,WNW,298,3.0,3.0,97,0.20,,,0.82,Wunderground v.1.15,2013-11-26 19:05:00,
2013-11-26 14:10:00,36.7,35.9,29.87,WNW,298,1.0,2.0,97,0.13,,,0.83,Wunderground v.1.15,2013-11-26 19:10:00,
2013-11-26 14:15:00,36.8,36.0,29.86,WNW,298,1.0,4.0,97,0.51,,,0.87,Wunderground v.1.15,2013-11-26 19:15:00,
2013-11-26 14:20:00,36.9,36.1,29.87,WNW,298,1.0,1.0,97,0.18,,,0.89,Wunderground v.1.15,2013-11-26 19:20:00,
2013-11-26 14:25:00,37.0,36.2,29.85,WNW,292,5.0,8.0,97,0.11,,,0.90,Wunderground v.1.15,2013-11-26 19:25:00,
2013-11-26 14:30:00,36.9,36.1,29.85,WNW,301,2.0,5.0,97,0.19,,,0.92,Wunderground v.1.15,2013-11-26 19:30:00,
2013-11-26 14:35:00,36.9,36.1,29.85,WNW,302,2.0,6.0,97,0.18,,,0.93,Wunderground v.1.15,2013-11-26 19:35:00,
2013-11-26 14:40:00,37.0,36.2,29.84,WNW,301,3.0,3.0,97,0.21,,,0.95,Wunderground v.1.15,2013-11-26 19:40:00,
2013-11-26 14:45:00,37.1,36.3,29.83,WNW,301,2.0,4.0,97,0.15,,,0.96,Wunderground v.1.15,2013-11-26 19:45:00,
2013-11-26 14:50:00,37.2,36.4,29.83,WNW,300,2.0,2.0,97,0.17,,,0.97,Wunderground v.1.15,2013-11-26 19:50:00,
2013-11-26 14:55:00,37.3,36.5,29.81,WNW,300,0.0,3.0,97,0.40,,,1.00,Wunderground v.1.15,2013-11-26 19:55:00,
2013-11-26 15:00:00,37.7,37.2,29.81,WNW,300,0.0,1.0,98,0.25,,,1.02,Wunderground v.1.15,2013-11-26 20:00:00,
2013-11-26 15:05:00,37.8,37.0,29.82,WNW,301,2.0,3.0,97,0.16,,,1.03,Wunderground v.1.15,2013-11-26 20:05:00,
2013-11-26 15:10:00,37.8,37.0,29.81,WNW,301,2.0,2.0,97,0.08,,,1.04,Wunderground v.1.15,2013-11-26 20:10:00,
2013-11-26 15:15:00,37.9,37.1,29.81,WNW,301,3.0,4.0,97,0.14,,,1.05,Wunderground v.1.15,2013-11-26 20:15:00,
2013-11-26 15:20:00,38.2,37.7,29.81,WNW,301,0.0,2.0,98,0.27,,,1.07,Wunderground v.1.15,2013-11-26 20:20:00,
2013-11-26 15:25:00,38.4,37.6,29.81,WNW,301,2.0,3.0,97,0.24,,,1.09,Wunderground v.1.15,2013-11-26 20:25:00,
2013-11-26 15:30:00,38.5,37.7,29.80,WNW,300,0.0,1.0,97,0.26,,,1.11,Wunderground v.1.15,2013-11-26 20:30:00,
2013-11-26 15:35:00,38.6,37.8,29.81,WNW,301,3.0,3.0,97,0.26,,,1.13,Wunderground v.1.15,2013-11-26 20:35:00,
2013-11-26 15:40:00,38.6,37.8,29.80,WNW,300,1.0,4.0,97,0.65,,,1.17,Wunderground v.1.15,2013-11-26 20:40:00,
2013-11-26 15:45:00,38.8,38.3,29.80,WNW,301,2.0,4.0,98,0.24,,,1.19,Wunderground v.1.15,2013-11-26 20:45:00,
2013-11-26 15:50:00,38.9,38.4,29.79,WNW,300,3.0,3.0,98,0.24,,,1.21,Wunderground v.1.15,2013-11-26 20:50:00,
2013-11-26 15:55:00,39.0,38.5,29.79,WNW,300,2.0,6.0,98,0.17,,,1.22,Wunderground v.1.15,2013-11-26 20:55:00,
2013-11-26 16:00:00,39.1,38.6,29.80,WNW,301,2.0,2.0,98,0.23,,,1.24,Wunderground v.1.15,2013-11-26 21:00:00,
2013-11-26 16:05:00,39.2,38.7,29.80,WNW,300,1.0,5.0,98,0.38,,,1.28,Wunderground v.1.15,2013-11-26 21:05:00,
2013-11-26 16:10:00,39.3,38.8,29.79,WNW,300,0.0,1.0,98,0.20,,,1.30,Wunderground v.1.15,2013-11-26 21:10:00,
2013-11-26 16:15:00,39.3,38.8,29.77,WNW,300,0.0,3.0,98,0.11,,,1.30,Wunderground v.1.15,2013-11-26 21:15:00,
2013-11-26 16:21:00,39.4,38.9,29.77,WNW,300,1.0,1.0,98,0.10,,,1.31,Wunderground v.1.15,2013-11-26 21:21:00,
2013-11-26 16:26:00,39.5,39.0,29.76,WNW,300,1.0,1.0,98,0.10,,,1.32,Wunderground v.1.15,2013-11-26 21:26:00,
2013-11-26 16:30:00,23.1,18.4,30.25,North,-999,0.0,0.0,82,0.00,,,-99.99,WeatherLink 6.0.3,2013-11-26 21:30:00,
2013-11-26 16:31:00,39.7,39.2,29.76,WNW,300,2.0,2.0,98,0.08,,,1.33,Wunderground v.1.15,2013-11-26 21:31:00,
2013-11-26 16:36:00,39.7,39.2,29.75,WNW,300,3.0,3.0,98,0.16,,,1.34,Wunderground v.1.15,2013-11-26 21:36:00,
2013-11-26 16:41:00,39.8,39.3,29.74,WNW,301,0.0,2.0,98,0.19,,,1.36,Wunderground v.1.15,2013-11-26 21:41:00,
2013-11-26 16:46:00,39.8,39.3,29.74,WNW,302,1.0,4.0,98,0.20,,,1.38,Wunderground v.1.15,2013-11-26 21:46:00,
2013-11-26 16:51:00,40.1,39.6,29.73,WNW,302,2.0,3.0,98,0.14,,,1.39,Wunderground v.1.15,2013-11-26 21:51:00,
2013-11-26 16:56:00,40.2,39.7,29.72,WNW,302,2.0,3.0,98,0.47,,,1.42,Wunderground v.1.15,2013-11-26 21:56:00,
2013-11-26 17:00:00,22.7,17.7,30.27,North,-999,0.0,0.0,81,0.00,,,-99.99,WeatherLink 6.0.3,2013-11-26 22:00:00,
2013-11-26 17:01:00,40.3,39.8,29.72,WNW,303,0.0,2.0,98,0.30,,,1.44,Wunderground v.1.15,2013-11-26 22:01:00,
2013-11-26 17:06:00,40.5,40.0,29.72,WNW,302,0.0,3.0,98,0.30,,,1.46,Wunderground v.1.15,2013-11-26 22:06:00,
2013-11-26 17:11:00,40.6,40.1,29.72,WNW,303,0.0,0.0,98,0.27,,,1.48,Wunderground v.1.15,2013-11-26 22:11:00,
2013-11-26 17:16:00,40.7,40.2,29.70,WNW,302,3.0,3.0,98,0.29,,,1.50,Wunderground v.1.15,2013-11-26 22:16:00,
2013-11-26 17:21:00,40.8,40.3,29.72,WNW,284,3.0,3.0,98,0.14,,,1.52,Wunderground v.1.15,2013-11-26 22:21:00,
2013-11-26 17:26:00,40.9,40.4,29.74,WNW,293,0.0,7.0,98,0.11,,,1.52,Wunderground v.1.15,2013-11-26 22:26:00,
2013-11-26 17:30:00,22.6,17.9,30.26,North,-999,0.0,0.0,82,0.00,,,-99.99,WeatherLink 6.0.3,2013-11-26 22:30:00,
2013-11-26 17:31:00,41.1,40.6,29.73,WNW,292,2.0,3.0,98,0.15,,,1.54,Wunderground v.1.15,2013-11-26 22:31:00,
2013-11-26 17:36:00,41.2,40.7,29.74,WNW,293,0.0,3.0,98,0.19,,,1.55,Wunderground v.1.15,2013-11-26 22:36:00,
2013-11-26 17:41:00,41.3,40.8,29.74,WNW,293,1.0,1.0,98,0.14,,,1.56,Wunderground v.1.15,2013-11-26 22:41:00,
2013-11-26 17:46:00,41.4,40.9,29.73,WNW,294,1.0,4.0,98,0.09,,,1.57,Wunderground v.1.15,2013-11-26 22:46:00,
2013-11-26 17:51:00,41.4,40.9,29.72,NE,37,0.0,5.0,98,0.14,,,1.58,Wunderground v.1.15,2013-11-26 22:51:00,
2013-11-26 17:56:00,41.4,40.9,29.72,WNW,294,1.0,5.0,98,0.07,,,1.58,Wunderground v.1.15,2013-11-26 22:56:00,
2013-11-26 18:00:00,21.9,17.8,30.27,North,-999,0.0,0.0,84,0.00,,,-99.99,WeatherLink 6.0.3,2013-11-26 23:00:00,
2013-11-26 18:01:00,41.3,40.8,29.73,WNW,296,2.0,4.0,98,0.24,,,1.60,Wunderground v.1.15,2013-11-26 23:01:00,
2013-11-26 18:06:00,41.3,40.8,29.72,WNW,296,1.0,4.0,98,0.09,,,1.60,Wunderground v.1.15,2013-11-26 23:06:00,
2013-11-26 18:11:00,41.3,40.8,29.71,WNW,302,3.0,5.0,98,0.05,,,1.61,Wunderground v.1.15,2013-11-26 23:11:00,
2013-11-26 18:16:00,41.2,40.7,29.71,WNW,302,3.0,5.0,98,0.05,,,1.61,Wunderground v.1.15,2013-11-26 23:16:00,
2013-11-26 18:21:00,41.1,40.6,29.72,WNW,298,0.0,2.0,98,0.05,,,1.61,Wunderground v.1.15,2013-11-26 23:21:00,
2013-11-26 18:26:00,41.1,40.6,29.70,WNW,299,3.0,6.0,98,0.05,,,1.62,Wunderground v.1.15,2013-11-26 23:26:00,
2013-11-26 18:30:00,21.8,17.7,30.29,NW,315,0.0,1.0,84,0.00,,,-99.99,WeatherLink 6.0.3,2013-11-26 23:30:00,
2013-11-26 18:31:00,40.9,40.4,29.71,WNW,300,2.0,4.0,98,0.10,,,1.63,Wunderground v.1.15,2013-11-26 23:31:00,
2013-11-26 18:36:00,40.9,40.4,29.70,WNW,302,3.0,5.0,98,0.08,,,1.63,Wunderground v.1.15,2013-11-26 23:36:00,
2013-11-26 18:41:00,40.9,40.4,29.70,WNW,297,0.0,4.0,98,0.05,,,1.63,Wunderground v.1.15,2013-11-26 23:41:00,
2013-11-26 18:47:00,40.9,40.4,29.71,WNW,299,0.0,5.0,98,0.00,,,1.63,Wunderground v.1.15,2013-11-26 23:47:00,
2013-11-26 18:52:00,41.0,40.5,29.70,WNW,299,0.0,2.0,98,0.00,,,1.63,Wunderground v.1.15,2013-11-26 23:52:00,
2013-11-26 18:57:00,41.0,40.5,29.70,WNW,299,3.0,3.0,98,0.00,,,1.64,Wunderground v.1.15,2013-11-26 23:57:00,
2013-11-26 19:00:00,22.0,18.5,30.29,NW,315,0.0,2.0,86,0.00,,,-99.99,WeatherLink 6.0.3,2013-11-27 00:00:00,
2013-11-26 19:02:00,41.1,40.6,29.70,WNW,299,0.0,1.0,98,0.00,,,1.64,Wunderground v.1.15,2013-11-27 00:02:00,
2013-11-26 19:07:00,41.2,40.7,29.70,WNW,299,0.0,1.0,98,0.00,,,1.64,Wunderground v.1.15,2013-11-27 00:07:00,
2013-11-26 19:12:00,41.3,40.8,29.69,WNW,299,0.0,1.0,98,0.00,,,1.64,Wunderground v.1.15,2013-11-27 00:12:00,
2013-11-26 19:17:00,41.3,40.8,29.70,WNW,299,1.0,2.0,98,0.00,,,1.65,Wunderground v.1.15,2013-11-27 00:17:00,
2013-11-26 19:22:00,41.3,40.8,29.69,WNW,299,0.0,1.0,98,0.00,,,1.65,Wunderground v.1.15,2013-11-27 00:22:00,
2013-11-26 19:27:00,41.3,40.8,29.69,WNW,299,0.0,2.0,98,0.00,,,1.65,Wunderground v.1.15,2013-11-27 00:27:00,
2013-11-26 19:30:00,21.6,18.1,30.31,NW,315,0.0,2.0,86,0.00,,,-99.99,WeatherLink 6.0.3,2013-11-27 00:30:00,
2013-11-26 19:32:00,41.3,40.8,29.69,WNW,299,0.0,0.0,98,0.00,,,1.65,Wunderground v.1.15,2013-11-27 00:32:00,
2013-11-26 19:37:00,41.4,40.9,29.69,WNW,299,0.0,1.0,98,0.00,,,1.65,Wunderground v.1.15,2013-11-27 00:37:00,
2013-11-26 19:42:00,41.7,41.2,29.69,WNW,299,0.0,0.0,98,0.00,,,1.65,Wunderground v.1.15,2013-11-27 00:42:00,
2013-11-26 19:47:00,41.9,41.4,29.68,WNW,299,0.0,0.0,98,0.00,,,1.66,Wunderground v.1.15,2013-11-27 00:47:00,
2013-11-26 19:52:00,41.8,41.3,29.68,WNW,299,0.0,0.0,98,0.00,,,1.66,Wunderground v.1.15,2013-11-27 00:52:00,
2013-11-26 19:57:00,41.8,41.3,29.67,WNW,299,0.0,0.0,98,0.00,,,1.66,Wunderground v.1.15,2013-11-27 00:57:00,
2013-11-26 20:00:00,21.3,18.0,30.33,NW,315,0.0,1.0,87,0.00,,,-99.99,WeatherLink 6.0.3,2013-11-27 01:00:00,
2013-11-26 20:02:00,41.8,41.3,29.67,WNW,299,0.0,0.0,98,0.00,,,1.66,Wunderground v.1.15,2013-11-27 01:02:00,
2013-11-26 20:07:00,41.8,41.3,29.67,WNW,299,0.0,0.0,98,0.00,,,1.66,Wunderground v.1.15,2013-11-27 01:07:00,
2013-11-26 20:12:00,41.9,41.4,29.66,WNW,299,0.0,0.0,98,0.00,,,1.66,Wunderground v.1.15,2013-11-27 01:12:00,
2013-11-26 20:17:00,42.2,41.7,29.67,WNW,299,0.0,0.0,98,0.00,,,1.66,Wunderground v.1.15,2013-11-27 01:17:00,
2013-11-26 20:22:00,42.3,41.8,29.67,WNW,299,0.0,1.0,98,0.00,,,1.66,Wunderground v.1.15,2013-11-27 01:22:00,
2013-11-26 20:27:00,42.2,41.7,29.66,WNW,299,0.0,1.0,98,0.00,,,1.67,Wunderground v.1.15,2013-11-27 01:27:00,
2013-11-26 20:30:00,21.1,18.1,30.34,NW,315,0.0,1.0,88,0.00,,,-99.99,WeatherLink 6.0.3,2013-11-27 01:30:00,
2013-11-26 20:32:00,42.3,41.8,29.66,WNW,299,0.0,0.0,98,0.00,,,1.67,Wunderground v.1.15,2013-11-27 01:32:00,
2013-11-26 20:37:00,42.4,41.9,29.65,WNW,299,0.0,1.0,98,0.00,,,1.67,Wunderground v.1.15,2013-11-27 01:37:00,
2013-11-26 20:42:00,42.3,41.8,29.65,WNW,299,0.0,2.0,98,0.00,,,1.67,Wunderground v.1.15,2013-11-27 01:42:00,
2013-11-26 20:47:00,42.2,41.7,29.65,WNW,299,0.0,2.0,98,0.00,,,1.67,Wunderground v.1.15,2013-11-27 01:47:00,
2013-11-26 20:52:00,42.0,41.5,29.65,WNW,299,2.0,5.0,98,0.00,,,1.68,Wunderground v.1.15,2013-11-27 01:52:00,
2013-11-26 20:57:00,41.8,41.3,29.64,WNW,299,1.0,5.0,98,0.13,,,1.69,Wunderground v.1.15,2013-11-27 01:57:00,
2013-11-26 21:00:00,22.6,20.6,30.34,NW,315,0.0,1.0,92,0.00,,,-99.99,WeatherLink 6.0.3,2013-11-27 02:00:00,
2013-11-26 21:02:00,41.6,41.1,29.63,WNW,300,2.0,4.0,98,0.08,,,1.70,Wunderground v.1.15,2013-11-27 02:02:00,
2013-11-26 21:07:00,41.5,41.0,29.63,WNW,300,1.0,4.0,98,0.08,,,1.70,Wunderground v.1.15,2013-11-27 02:07:00,
2013-11-26 21:12:00,41.5,41.0,29.64,WNW,300,0.0,3.0,98,0.06,,,1.71,Wunderground v.1.15,2013-11-27 02:12:00,
2013-11-26 21:17:00,41.5,41.0,29.63,WNW,301,0.0,5.0,98,0.31,,,1.73,Wunderground v.1.15,2013-11-27 02:17:00,
2013-11-26 21:23:00,41.5,41.0,29.63,WNW,301,2.0,4.0,98,0.17,,,1.75,Wunderground v.1.15,2013-11-27 02:23:00,
2013-11-26 21:28:00,41.5,41.0,29.62,WNW,301,0.0,4.0,98,0.18,,,1.76,Wunderground v.1.15,2013-11-27 02:28:00,
2013-11-26 21:30:00,24.0,22.0,30.36,NW,315,0.0,1.0,92,0.00,,,-99.99,WeatherLink 6.0.3,2013-11-27 02:30:00,
2013-11-26 21:33:00,41.5,41.0,29.63,WNW,300,0.0,1.0,98,0.22,,,1.78,Wunderground v.1.15,2013-11-27 02:33:00,
2013-11-26 21:38:00,41.6,41.1,29.61,WNW,301,0.0,2.0,98,0.34,,,1.80,Wunderground v.1.15,2013-11-27 02:38:00,
2013-11-26 21:43:00,41.6,41.1,29.61,WNW,301,0.0,1.0,98,0.23,,,1.82,Wunderground v.1.15,2013-11-27 02:43:00,
2013-11-26 21:48:00,41.7,41.2,29.61,WNW,300,0.0,1.0,98,0.24,,,1.84,Wunderground v.1.15,2013-11-27 02:48:00,
2013-11-26 21:53:00,42.0,41.5,29.61,WNW,301,2.0,2.0,98,0.23,,,1.86,Wunderground v.1.15,2013-11-27 02:53:00,
2013-11-26 21:58:00,41.8,41.3,29.61,WNW,300,0.0,2.0,98,0.09,,,1.86,Wunderground v.1.15,2013-11-27 02:58:00,
2013-11-26 22:00:00,26.1,21.9,30.37,NNW,337,0.0,1.0,84,0.00,,,-99.99,WeatherLink 6.0.3,2013-11-27 03:00:00,
2013-11-26 22:03:00,41.8,41.3,29.62,WNW,301,0.0,0.0,98,0.05,,,1.86,Wunderground v.1.15,2013-11-27 03:03:00,
2013-11-26 22:08:00,41.8,41.3,29.61,WNW,300,1.0,1.0,98,0.04,,,1.86,Wunderground v.1.15,2013-11-27 03:08:00,
2013-11-26 22:13:00,41.9,41.4,29.60,WNW,301,2.0,2.0,98,0.00,,,1.86,Wunderground v.1.15,2013-11-27 03:13:00,
2013-11-26 22:18:00,41.7,41.2,29.61,WNW,300,1.0,3.0,98,0.00,,,1.87,Wunderground v.1.15,2013-11-27 03:18:00,
2013-11-26 22:23:00,41.7,41.2,29.62,WNW,301,2.0,4.0,98,0.00,,,1.87,Wunderground v.1.15,2013-11-27 03:23:00,
2013-11-26 22:28:00,41.7,41.2,29.62,WNW,301,4.0,5.0,98,0.00,,,1.87,Wunderground v.1.15,2013-11-27 03:28:00,
2013-11-26 22:30:00,29.9,24.2,30.38,ENE,67,0.0,2.0,79,0.00,,,-99.99,WeatherLink 6.0.3,2013-11-27 03:30:00,
2013-11-26 22:33:00,41.6,41.1,29.62,WNW,300,0.0,3.0,98,0.00,,,1.87,Wunderground v.1.15,2013-11-27 03:33:00,
2013-11-26 22:38:00,41.7,41.2,29.62,WNW,301,0.0,3.0,98,0.00,,,1.87,Wunderground v.1.15,2013-11-27 03:38:00,
2013-11-26 22:43:00,41.8,41.3,29.61,WNW,301,1.0,2.0,98,0.00,,,1.88,Wunderground v.1.15,2013-11-27 03:43:00,
2013-11-26 22:48:00,41.9,41.4,29.62,WNW,301,0.0,2.0,98,0.00,,,1.88,Wunderground v.1.15,2013-11-27 03:48:00,
2013-11-26 22:53:00,42.0,41.5,29.62,WNW,300,0.0,1.0,98,0.05,,,1.89,Wunderground v.1.15,2013-11-27 03:53:00,
2013-11-26 22:58:00,42.2,41.7,29.62,WNW,300,0.0,1.0,98,0.05,,,1.89,Wunderground v.1.15,2013-11-27 03:58:00,
2013-11-26 23:00:00,31.4,24.7,30.39,East,90,0.0,3.0,76,0.00,,,-99.99,WeatherLink 6.0.3,2013-11-27 04:00:00,
2013-11-26 23:03:00,42.3,41.8,29.62,WNW,301,1.0,2.0,98,0.09,,,1.90,Wunderground v.1.15,2013-11-27 04:03:00,
2013-11-26 23:08:00,42.4,41.9,29.62,WNW,301,1.0,2.0,98,0.06,,,1.90,Wunderground v.1.15,2013-11-27 04:08:00,
2013-11-26 23:13:00,42.4,41.9,29.61,WNW,301,0.0,3.0,98,0.05,,,1.91,Wunderground v.1.15,2013-11-27 04:13:00,
2013-11-26 23:18:00,42.4,41.9,29.61,WNW,301,0.0,3.0,98,0.07,,,1.91,Wunderground v.1.15,2013-11-27 04:18:00,
2013-11-26 23:23:00,42.4,41.9,29.61,WNW,301,0.0,1.0,98,0.07,,,1.92,Wunderground v.1.15,2013-11-27 04:23:00,
2013-11-26 23:28:00,42.4,41.9,29.62,WNW,300,1.0,3.0,98,0.06,,,1.92,Wunderground v.1.15,2013-11-27 04:28:00,
2013-11-26 23:30:00,34.2,25.1,30.39,East,90,0.0,2.0,69,0.00,,,-99.99,WeatherLink 6.0.3,2013-11-27 04:30:00,
2013-11-26 23:33:00,42.4,41.9,29.62,WNW,301,0.0,1.0,98,0.04,,,1.92,Wunderground v.1.15,2013-11-27 04:33:00,
2013-11-26 23:38:00,42.7,42.2,29.61,WNW,301,0.0,1.0,98,0.00,,,1.92,Wunderground v.1.15,2013-11-27 04:38:00,
2013-11-26 23:43:00,42.8,42.3,29.61,WNW,301,0.0,0.0,98,0.00,,,1.92,Wunderground v.1.15,2013-11-27 04:43:00,
2013-11-26 23:48:00,42.9,42.4,29.61,WNW,300,0.0,0.0,98,0.00,,,1.92,Wunderground v.1.15,2013-11-27 04:48:00,
2013-11-26 23:53:00,43.0,42.5,29.60,WNW,301,0.0,0.0,98,0.00,,,1.92,Wunderground v.1.15,2013-11-27 04:53:00,
2013-11-26 23:58:00,43.1,42.6,29.60,WNW,300,0.0,1.0,98,0.00,,,1.92,Wunderground v.1.15,2013-11-27 04:58:00,